#timestamp,LO_Frequency,Hit,StdDev 
1532656815.6,286047002.0,N
1532656835.5,286047001.9,N
1532656855.3,286047002.1,N
1532656875.1,286047002.0,N
1532656895.9,286047002.4,N
1532656915.7,286047002.7,N
1532656935.6,286047000.2,N
1532656955.4,286047002.4,N
1532656975.2,286047002.7,N
1532656995.1,286047002.2,N
1532656996.0,286047002.2,N
1532657015.8,286047002.8,N
1532657035.6,286046999.7,N
1532657055.5,286047000.1,N
1532657075.3,286047002.8,N
1532657095.2,286047002.8,N
1532657115.9,286047001.0,N
1532657135.7,286047001.1,N
1532657155.6,286047000.7,N
1532657175.4,286047000.7,N
1532657195.2,286047000.8,N
1532657215.1,286046998.6,N
1532657216.0,286046998.6,N
1532657235.8,286046998.4,N
1532657255.7,286046998.3,N
1532657275.5,286046996.9,N
1532657295.3,286046996.8,N
1532657315.2,286046996.9,N
1532657335.0,286046996.5,N
1532657335.9,286046996.5,N
1532657355.7,286046997.2,N
1532657375.6,286046997.2,N
1532657395.4,286046997.2,N
1532657415.3,286046997.1,N
1532657435.1,286046996.6,N
1532657455.8,286046996.9,N
1532657475.7,286046996.6,N
1532657495.5,286046997.4,N
1532657515.4,286046997.7,N
1532657535.2,286046997.8,N
1532657555.0,286046997.2,N
1532657555.9,286046997.2,N
1532657575.8,286046994.9,N
1532657595.6,286046995.3,N
1532657615.5,286046995.0,N
1532657635.3,286046997.9,N
1532657655.1,286046995.5,N
1532657675.9,286046993.3,Y
1532657695.7,286046997.5,P
1532657715.5,286046995.0,P
1532657735.4,286046997.7,N
1532657755.2,286046997.6,N
1532657775.1,286046995.3,Y
1532657776.0,286046995.3,P
1532657795.8,286046998.5,N
1532657815.6,286046998.1,N
1532657835.5,286047000.8,N
1532657855.3,286047000.5,N
1532657875.1,286047000.8,N
1532657895.9,286047001.0,N
1532657915.7,286046998.6,N
1532657935.3,286047001.1,N
1532657955.1,286046998.6,N
1532657975.9,286047001.1,N
1532657995.7,286047001.2,N
1532658015.5,286047001.1,N
1532658035.4,286047000.7,N
1532658055.2,286047000.6,N
1532658075.1,286047000.4,N
1532658076.0,286047000.4,N
1532658095.8,286047001.1,N
1532658115.6,286047000.3,N
1532658135.5,286047002.8,N
1532658155.3,286047000.4,N
1532658175.1,286047000.1,N
1532658195.9,286047000.6,N
1532658215.7,286047000.6,N
1532658235.3,286047001.0,N
1532658255.1,286046998.2,N
1532658275.9,286046998.6,N
1532658295.7,286046998.9,N
1532658315.5,286047000.7,N
1532658335.4,286046998.1,N
1532658355.2,286046998.1,N
1532658375.0,286046998.5,N
1532658376.0,286046998.5,N
1532658395.8,286046998.2,N
1532658415.6,286046998.7,N
1532658435.5,286046998.9,N
1532658455.3,286046998.5,N
1532658475.1,286046998.2,N
1532658495.9,286046998.4,N
1532658515.7,286046998.8,N
1532658535.6,286046998.3,N
1532658555.4,286046998.8,N
1532658575.2,286046998.4,N
1532658595.1,286046999.0,N
1532658596.0,286046999.0,N
1532658615.8,286046999.3,N
1532658635.7,286046996.7,N
1532658655.5,286046997.7,N
1532658675.3,286046996.7,N
1532658695.2,286046996.9,N
1532658715.0,286046999.1,N
1532658735.1,286046998.8,N
1532658736.0,286046998.8,N
1532658755.8,286046999.1,N
1532658775.7,286046999.4,N
1532658795.5,286046997.0,Y
1532658815.3,286046998.7,P
1532658835.2,286047001.2,P
1532658855.0,286047000.7,N
1532658855.9,286047000.7,N
1532658875.8,286046998.2,N
1532658895.6,286046998.4,N
1532658915.4,286046999.4,N
1532658935.3,286046998.5,N
1532658955.1,286046998.6,N
1532658975.8,286046998.8,N
1532658995.7,286046999.0,N
1532659015.5,286046998.9,N
1532659035.4,286046998.8,N
1532659055.2,286046996.6,Y
1532659075.0,286046998.5,P
1532659075.9,286046998.5,P
1532659095.8,286046998.2,P
1532659115.6,286047000.7,N
1532659135.4,286047000.4,N
1532659155.3,286046998.5,N
1532659175.1,286046998.3,N
1532659195.9,286047001.1,N
1532659215.7,286046998.6,N
1532659235.7,286046998.5,N
1532659255.6,286046998.6,N
1532659275.4,286046998.5,N
1532659295.2,286046999.1,N
1532659315.1,286046999.2,N
1532659316.0,286046999.2,N
1532659335.8,286046998.4,N
1532659355.6,286046998.4,N
1532659375.5,286046999.3,N
1532659395.3,286046998.5,N
1532659415.2,286046998.1,N
1532659435.9,286046998.6,N
1532659455.7,286046998.7,N
1532659475.6,286046998.4,N
1532659495.4,286046998.5,N
1532659515.2,286047001.0,N
1532659535.1,286047001.2,N
1532659536.0,286047001.2,N
1532659555.8,286047001.1,N
1532659575.7,286047001.0,N
1532659595.5,286046998.7,N
1532659615.3,286046998.6,N
1532659635.2,286046998.1,N
1532659655.9,286046998.2,N
1532659675.7,286047000.5,N
1532659695.6,286047000.7,N
1532659715.4,286047000.9,N
1532659735.2,286047001.0,N
1532659755.1,286047000.7,N
1532659756.0,286047000.7,N
1532659775.8,286047000.0,N
1532659795.7,286047000.4,N
1532659815.5,286046998.2,N
1532659835.3,286046998.2,N
1532659855.2,286047001.2,N
1532659875.0,286047001.0,N
1532659875.9,286047001.0,N
1532659895.8,286046999.8,N
1532659915.6,286047000.0,N
1532659935.4,286047000.2,N
1532659955.3,286046999.8,N
1532659975.1,286046999.8,N
1532659995.8,286047000.2,N
1532660015.7,286047000.4,N
1532660035.5,286047000.2,N
1532660055.4,286047000.4,N
1532660075.2,286046999.9,N
1532660095.0,286047000.2,N
1532660095.9,286047000.2,N
1532660115.8,286047000.2,N
1532660135.6,286047002.4,N
1532660155.4,286047000.1,N
1532660175.3,286047000.1,N
1532660195.1,286047000.3,N
1532660215.9,286046999.7,N
1532660235.7,286047002.2,N
1532660255.5,286047001.9,N
1532660275.4,286047001.4,N
1532660295.2,286047002.1,N
1532660315.0,286047002.0,N
1532660315.9,286047002.0,N
1532660335.8,286047002.1,N
1532660355.6,286047002.3,N
1532660375.4,286047002.4,N
1532660395.3,286047002.0,N
